Location: Astroquest
(35.1187°N, 89.7105°W)
Time: 10:57:25
(UTC-06:00)

Tiangong 2 - Visible Passes

Search period start: 23 November 2017 00:00
Search period end: 03 December 2017 00:00
Orbit: 386 x 392 km, 42.8° (Epoch: 22 November)

Date Brightness Start Highest point End Pass type
(mag) Time Alt. Az. Time Alt. Az. Time Alt. Az.
24 Nov 4.2 05:38:03 10° S 05:39:48 14° SE 05:41:33 10° ESE visible
25 Nov 1.9 06:15:01 10° SW 06:18:08 55° SSE 06:21:17 10° ENE visible
26 Nov 3.0 05:17:19 11° SSW 05:20:01 28° SE 05:22:50 10° E visible
27 Nov 4.3 04:22:52 14° ESE 04:22:52 14° ESE 04:23:54 10° ESE visible
27 Nov 1.0 05:55:19 10° WSW 05:58:29 72° NNW 06:01:42 10° ENE visible
28 Nov 1.6 05:00:29 58° SE 05:00:29 58° SE 05:03:26 10° ENE visible
29 Nov 1.7 05:37:50 29° WNW 05:38:54 40° NNW 05:41:57 10° NE visible
30 Nov 3.6 04:42:41 19° NE 04:42:41 19° NE 04:43:47 10° ENE visible
30 Nov 2.7 06:15:11 10° WNW 06:17:47 22° N 06:20:23 10° NE visible
01 Dec 2.5 05:19:43 27° N 05:19:43 27° N 05:22:09 10° NE visible
02 Dec 2.9 05:56:38 14° NW 05:58:18 20° N 06:00:45 10° NE visible
